This is the latest recevied weather packets stored in our database for station/object N8AMF. If no packets are shown the sender has not sent any weather packets the latest 10 day(s).
| Time | Temp. | Humidity | Pressure | Rain* | Wind** | Luminosity | Snow |
|---|---|---|---|---|---|---|---|
| 1777840885 | 16.67° C | 37% | 1011.3 hPa | 0 mm | - | 792 W/m² | - |
| 1777840581 | 16.67° C | 38% | 1011.3 hPa | 0 mm | - | 303 W/m² | - |
| 1777840279 | 16.11° C | 39% | 1011.2 hPa | 0 mm | - | 831 W/m² | - |
| 1777839976 | 16.11° C | 38% | 1011.3 hPa | 0 mm | - | 270 W/m² | - |
| 1777839674 | 16.67° C | 38% | 1011.2 hPa | 0 mm | - | 358 W/m² | - |
| 1777839372 | 16.67° C | 37% | 1011.5 hPa | 0 mm | - | 948 W/m² | - |
| 1777839069 | 16.11° C | 38% | 1011.5 hPa | 0 mm | - | 801 W/m² | - |
| 1777838765 | 16.11° C | 38% | 1011.7 hPa | 0 mm | - | 940 W/m² | - |
| 1777838462 | 17.22° C | 36% | 1011.8 hPa | 0 mm | - | 927 W/m² | - |
| 1777838159 | 17.78° C | 37% | 1011.5 hPa | 0 mm | - | 241 W/m² | - |
| 1777837856 | 17.22° C | 34% | 1011.6 hPa | 0 mm | - | 942 W/m² | - |
| 1777837553 | 16.67° C | 38% | 1011.7 hPa | 0 mm | - | 819 W/m² | - |
| 1777837253 | 17.22° C | 37% | 1012 hPa | 0 mm | - | 459 W/m² | - |
| 1777836950 | 17.22° C | 40% | 1012.1 hPa | 0 mm | - | 259 W/m² | - |
| 1777836645 | 17.22° C | 36% | 1012.1 hPa | 0 mm | - | 998 W/m² | - |
| 1777836341 | 16.67° C | 37% | 1012.2 hPa | 0 mm | - | 1042 W/m² | - |
| 1777836037 | 16.11° C | 37% | 1012.2 hPa | 0 mm | - | 641 W/m² | - |
| 1777835734 | 16.67° C | 39% | 1012.2 hPa | 0 mm | - | 646 W/m² | - |
| 1777835431 | 16.67° C | 37% | 1012.5 hPa | 0 mm | - | 570 W/m² | - |
| 1777835128 | 16.67° C | 36% | 1012.4 hPa | 0 mm | - | 355 W/m² | - |
| 1777834825 | 17.22° C | 37% | 1012.5 hPa | 0 mm | - | 710 W/m² | - |
| 1777834521 | 16.11° C | 40% | 1012.5 hPa | 0 mm | - | 1083 W/m² | - |
| 1777834221 | 17.22° C | 37% | 1012.5 hPa | 0 mm | - | 309 W/m² | - |
| 1777833917 | 16.67° C | 37% | 1012.6 hPa | 0 mm | - | 386 W/m² | - |
| 1777833613 | 16.67° C | 39% | 1012.5 hPa | 0 mm | - | 1067 W/m² | - |
* Rain latest hour (hover to see other rain measurements)
** Current wind speed in m/s (hover to see current wind gust speed)